Location: Newark
(53.3333°N, 83.7500°E)
Time: 14:21:15
(UTC+00:00)

SR - Pass Details

Date: 15 November 2019
Orbit: 573 x 882 km, 66.7° (Epoch: 13 December)

Event Time Altitude Azimuth Distance (km) Brightness Sun altitude
Rises 15:36:59 0° 309° (NW) 3,423 ? -44.4°
Reaches altitude 10° 15:39:53 10° 322° (NW) 2,517 ? -44.8°
Enters shadow 15:40:46 14° 328° (NNW) 2,274 ? -44.9°
